,Coso Junction,Coso Junction
,PM10_1HR,PM10_1HR
,UG/M3,UG/M3
Date,Value,Null Code
01-Oct-2020 00:00,34,
01-Oct-2020 01:00,29.3,
01-Oct-2020 02:00,24.2,
01-Oct-2020 03:00,23.9,
01-Oct-2020 04:00,23.9,
01-Oct-2020 05:00,25.2,
01-Oct-2020 06:00,26.5,
01-Oct-2020 07:00,30.6,
01-Oct-2020 08:00,32.8,
01-Oct-2020 09:00,34.7,
01-Oct-2020 10:00,33.5,
01-Oct-2020 11:00,25.8,
01-Oct-2020 12:00,15.7,
01-Oct-2020 13:00,11.4,
01-Oct-2020 14:00,10.8,
01-Oct-2020 15:00,8.6,
01-Oct-2020 16:00,9,
01-Oct-2020 17:00,24.3,
01-Oct-2020 18:00,17.2,
01-Oct-2020 19:00,17.2,
01-Oct-2020 20:00,10.9,
01-Oct-2020 21:00,10.8,
01-Oct-2020 22:00,11.5,
01-Oct-2020 23:00,18.5,
02-Oct-2020 00:00,8.6,
02-Oct-2020 01:00,8.5,
02-Oct-2020 02:00,11,
02-Oct-2020 03:00,10,
02-Oct-2020 04:00,11.3,
02-Oct-2020 05:00,10.6,
02-Oct-2020 06:00,9.8,
02-Oct-2020 07:00,14,
02-Oct-2020 08:00,12.5,
02-Oct-2020 09:00,14.3,
02-Oct-2020 10:00,12.9,
02-Oct-2020 11:00,13.1,
02-Oct-2020 12:00,12.3,
02-Oct-2020 13:00,6.8,
02-Oct-2020 14:00,4.6,
02-Oct-2020 15:00,5,
02-Oct-2020 16:00,7.4,
02-Oct-2020 17:00,4.8,
02-Oct-2020 18:00,6.8,
02-Oct-2020 19:00,10.7,
02-Oct-2020 20:00,11.6,
02-Oct-2020 21:00,15.4,
02-Oct-2020 22:00,13.9,
02-Oct-2020 23:00,19.9,
03-Oct-2020 00:00,17.6,
03-Oct-2020 01:00,10.9,
03-Oct-2020 02:00,10.8,
03-Oct-2020 03:00,9.8,
03-Oct-2020 04:00,11.6,
03-Oct-2020 05:00,12.7,
03-Oct-2020 06:00,14.3,
03-Oct-2020 07:00,15.1,
03-Oct-2020 08:00,15.9,
03-Oct-2020 09:00,17.1,
03-Oct-2020 10:00,20.1,
03-Oct-2020 11:00,14.8,
03-Oct-2020 12:00,12.9,
03-Oct-2020 13:00,10.4,
03-Oct-2020 14:00,11.9,
03-Oct-2020 15:00,15.7,
03-Oct-2020 16:00,12.4,
03-Oct-2020 17:00,15.1,
03-Oct-2020 18:00,11.4,
03-Oct-2020 19:00,14.3,
03-Oct-2020 20:00,20.3,
03-Oct-2020 21:00,28.2,
03-Oct-2020 22:00,36.2,
03-Oct-2020 23:00,29.1,
04-Oct-2020 00:00,31,
04-Oct-2020 01:00,30.7,
04-Oct-2020 02:00,41.6,
04-Oct-2020 03:00,32.5,
04-Oct-2020 04:00,29.8,
04-Oct-2020 05:00,32.2,
04-Oct-2020 06:00,31.2,
04-Oct-2020 07:00,38.6,
04-Oct-2020 08:00,48.1,
04-Oct-2020 09:00,48.8,
04-Oct-2020 10:00,46.5,
04-Oct-2020 11:00,51.6,
04-Oct-2020 12:00,45.1,
04-Oct-2020 13:00,25.4,
04-Oct-2020 14:00,19.7,
04-Oct-2020 15:00,23.8,
04-Oct-2020 16:00,28.2,
04-Oct-2020 17:00,22.1,
04-Oct-2020 18:00,26.7,
04-Oct-2020 19:00,33.3,
04-Oct-2020 20:00,32.9,
04-Oct-2020 21:00,34.9,
04-Oct-2020 22:00,31.2,
04-Oct-2020 23:00,38.3,
05-Oct-2020 00:00,48.1,
05-Oct-2020 01:00,48.1,
05-Oct-2020 02:00,52.9,
05-Oct-2020 03:00,54.2,
05-Oct-2020 04:00,53.7,
05-Oct-2020 05:00,50.6,
05-Oct-2020 06:00,57.8,
05-Oct-2020 07:00,70.1,
05-Oct-2020 08:00,70.1,
05-Oct-2020 09:00,89.1,
05-Oct-2020 10:00,112.8,
05-Oct-2020 11:00,123.4,
05-Oct-2020 12:00,109.2,
05-Oct-2020 13:00,84.1,
05-Oct-2020 14:00,67.7,
05-Oct-2020 15:00,72.2,
05-Oct-2020 16:00,81.7,
05-Oct-2020 17:00,62.7,
05-Oct-2020 18:00,59.8,
05-Oct-2020 19:00,52.5,
05-Oct-2020 20:00,47.9,
05-Oct-2020 21:00,41.5,
05-Oct-2020 22:00,43.3,
05-Oct-2020 23:00,71.6,
06-Oct-2020 00:00,45.9,
06-Oct-2020 01:00,46.9,
06-Oct-2020 02:00,50.5,
06-Oct-2020 03:00,50.6,
06-Oct-2020 04:00,51.8,
06-Oct-2020 05:00,54.2,
06-Oct-2020 06:00,57.2,
06-Oct-2020 07:00,60.5,
06-Oct-2020 08:00,64.2,
06-Oct-2020 09:00,64.4,
06-Oct-2020 10:00,65.3,
06-Oct-2020 11:00,60.7,
06-Oct-2020 12:00,43.3,
06-Oct-2020 13:00,36.2,
06-Oct-2020 14:00,36.7,
06-Oct-2020 15:00,29.6,
06-Oct-2020 16:00,31.3,
06-Oct-2020 17:00,31.3,
06-Oct-2020 18:00,26,
06-Oct-2020 19:00,27.4,
06-Oct-2020 20:00,28.6,
06-Oct-2020 21:00,50.9,
06-Oct-2020 22:00,28,
06-Oct-2020 23:00,30.6,
07-Oct-2020 00:00,26.8,
07-Oct-2020 01:00,28.2,
07-Oct-2020 02:00,27.7,
07-Oct-2020 03:00,27.4,
07-Oct-2020 04:00,29.9,
07-Oct-2020 05:00,30.3,
07-Oct-2020 06:00,28.9,
07-Oct-2020 07:00,32,
07-Oct-2020 08:00,29.4,
07-Oct-2020 09:00,29.3,
07-Oct-2020 10:00,29.8,
07-Oct-2020 11:00,30.9,
07-Oct-2020 12:00,28.5,
07-Oct-2020 13:00,25.5,
07-Oct-2020 14:00,25.2,
07-Oct-2020 15:00,27.5,
07-Oct-2020 16:00,22.4,
07-Oct-2020 17:00,17,
07-Oct-2020 18:00,12.7,
07-Oct-2020 19:00,15.9,
07-Oct-2020 20:00,22.3,
07-Oct-2020 21:00,24.2,
07-Oct-2020 22:00,29,
07-Oct-2020 23:00,31.1,
08-Oct-2020 00:00,27.4,
08-Oct-2020 01:00,28.6,
08-Oct-2020 02:00,20.9,
08-Oct-2020 03:00,45.6,
08-Oct-2020 04:00,34.1,
08-Oct-2020 05:00,24.4,
08-Oct-2020 06:00,30.3,
08-Oct-2020 07:00,30.4,
08-Oct-2020 08:00,28.4,
08-Oct-2020 09:00,30.9,
08-Oct-2020 10:00,29.1,
08-Oct-2020 11:00,23.6,
08-Oct-2020 12:00,29.3,
08-Oct-2020 13:00,31.4,
08-Oct-2020 14:00,24.9,
08-Oct-2020 15:00,21,
08-Oct-2020 16:00,32.9,
08-Oct-2020 17:00,35.9,
08-Oct-2020 18:00,33.9,
08-Oct-2020 19:00,38.7,
08-Oct-2020 20:00,58,
08-Oct-2020 21:00,46.7,
08-Oct-2020 22:00,51.9,
08-Oct-2020 23:00,55.8,
09-Oct-2020 00:00,58.8,
09-Oct-2020 01:00,51.4,
09-Oct-2020 02:00,50.3,
09-Oct-2020 03:00,43.6,
09-Oct-2020 04:00,32.4,
09-Oct-2020 05:00,33.5,
09-Oct-2020 06:00,29.2,
09-Oct-2020 07:00,25.8,
09-Oct-2020 08:00,32.6,
09-Oct-2020 09:00,28.3,
09-Oct-2020 10:00,29.1,
09-Oct-2020 11:00,26.1,
09-Oct-2020 12:00,37.2,
09-Oct-2020 13:00,54.6,
09-Oct-2020 14:00,46.8,
09-Oct-2020 15:00,47.1,
09-Oct-2020 16:00,42.9,
09-Oct-2020 17:00,39.8,
09-Oct-2020 18:00,61,
09-Oct-2020 19:00,58.6,
09-Oct-2020 20:00,55.8,
09-Oct-2020 21:00,52.2,
09-Oct-2020 22:00,48.9,
09-Oct-2020 23:00,52.9,
10-Oct-2020 00:00,53.2,
10-Oct-2020 01:00,51.7,
10-Oct-2020 02:00,52.4,
10-Oct-2020 03:00,57.7,
10-Oct-2020 04:00,58.6,
10-Oct-2020 05:00,56.5,
10-Oct-2020 06:00,66.2,
10-Oct-2020 07:00,62.2,
10-Oct-2020 08:00,61.5,
10-Oct-2020 09:00,60.6,
10-Oct-2020 10:00,62.9,
10-Oct-2020 11:00,61,
10-Oct-2020 12:00,63.7,
10-Oct-2020 13:00,60.6,
10-Oct-2020 14:00,54.7,
10-Oct-2020 15:00,50.9,
10-Oct-2020 16:00,64.2,
10-Oct-2020 17:00,57.2,
10-Oct-2020 18:00,52.3,
10-Oct-2020 19:00,50.7,
10-Oct-2020 20:00,49.6,
10-Oct-2020 21:00,41.8,
10-Oct-2020 22:00,33.5,
10-Oct-2020 23:00,36.2,
11-Oct-2020 00:00,35.3,
11-Oct-2020 01:00,45.4,
11-Oct-2020 02:00,44.5,
11-Oct-2020 03:00,43.4,
11-Oct-2020 04:00,47.8,
11-Oct-2020 05:00,47.4,
11-Oct-2020 06:00,51.1,
11-Oct-2020 07:00,50.7,
11-Oct-2020 08:00,52.3,
11-Oct-2020 09:00,55.5,
11-Oct-2020 10:00,55.6,
11-Oct-2020 11:00,26.8,
11-Oct-2020 12:00,17.3,
11-Oct-2020 13:00,32.1,
11-Oct-2020 14:00,37.9,
11-Oct-2020 15:00,37.2,
11-Oct-2020 16:00,39.7,
11-Oct-2020 17:00,34,
11-Oct-2020 18:00,31.4,
11-Oct-2020 19:00,30.4,
11-Oct-2020 20:00,40.7,
11-Oct-2020 21:00,30.4,
11-Oct-2020 22:00,30.6,
11-Oct-2020 23:00,39.3,
12-Oct-2020 00:00,35.7,
12-Oct-2020 01:00,29.3,
12-Oct-2020 02:00,24.6,
12-Oct-2020 03:00,28.4,
12-Oct-2020 04:00,25,
12-Oct-2020 05:00,23.8,
12-Oct-2020 06:00,25.3,
12-Oct-2020 07:00,27.9,
12-Oct-2020 08:00,26.8,
12-Oct-2020 09:00,22.8,
12-Oct-2020 10:00,16,
12-Oct-2020 11:00,12.4,
12-Oct-2020 12:00,18.3,
12-Oct-2020 13:00,14.6,
12-Oct-2020 14:00,18.5,
12-Oct-2020 15:00,24.2,
12-Oct-2020 16:00,57.1,
12-Oct-2020 17:00,27.8,
12-Oct-2020 18:00,19.7,
12-Oct-2020 19:00,22.4,
12-Oct-2020 20:00,22.1,
12-Oct-2020 21:00,22.3,
12-Oct-2020 22:00,21.2,
12-Oct-2020 23:00,21.2,
13-Oct-2020 00:00,26.9,
13-Oct-2020 01:00,23.2,
13-Oct-2020 02:00,23.1,
13-Oct-2020 03:00,24.8,
13-Oct-2020 04:00,19.3,
13-Oct-2020 05:00,21.5,
13-Oct-2020 06:00,19.7,
13-Oct-2020 07:00,23.2,
13-Oct-2020 08:00,30.3,
13-Oct-2020 09:00,25.9,
13-Oct-2020 10:00,,AX
13-Oct-2020 11:00,,AX
13-Oct-2020 12:00,,AX
13-Oct-2020 13:00,,AX
13-Oct-2020 14:00,32.6,
13-Oct-2020 15:00,19.9,
13-Oct-2020 16:00,17.3,
13-Oct-2020 17:00,25.5,
13-Oct-2020 18:00,16.4,
13-Oct-2020 19:00,16.3,
13-Oct-2020 20:00,16.3,
13-Oct-2020 21:00,40.9,
13-Oct-2020 22:00,36.6,
13-Oct-2020 23:00,16.8,
14-Oct-2020 00:00,19.4,
14-Oct-2020 01:00,20.7,
14-Oct-2020 02:00,22,
14-Oct-2020 03:00,18.8,
14-Oct-2020 04:00,18.8,
14-Oct-2020 05:00,20.5,
14-Oct-2020 06:00,32.7,
14-Oct-2020 07:00,32.5,
14-Oct-2020 08:00,42.8,
14-Oct-2020 09:00,44.5,
14-Oct-2020 10:00,46.6,
14-Oct-2020 11:00,39.6,
14-Oct-2020 12:00,44.4,
14-Oct-2020 13:00,43.3,
14-Oct-2020 14:00,40.6,
14-Oct-2020 15:00,41.6,
14-Oct-2020 16:00,67.2,
14-Oct-2020 17:00,37.7,
14-Oct-2020 18:00,49.9,
14-Oct-2020 19:00,33.4,
14-Oct-2020 20:00,37.2,
14-Oct-2020 21:00,33.2,
14-Oct-2020 22:00,27.1,
14-Oct-2020 23:00,30.4,
15-Oct-2020 00:00,30.2,
15-Oct-2020 01:00,26.8,
15-Oct-2020 02:00,26.1,
15-Oct-2020 03:00,24.9,
15-Oct-2020 04:00,26,
15-Oct-2020 05:00,22.8,
15-Oct-2020 06:00,17.1,
15-Oct-2020 07:00,17.7,
15-Oct-2020 08:00,13.5,
15-Oct-2020 09:00,11.6,
15-Oct-2020 10:00,12.8,
15-Oct-2020 11:00,17.6,
15-Oct-2020 12:00,14.5,
15-Oct-2020 13:00,14,
15-Oct-2020 14:00,14.3,
15-Oct-2020 15:00,15.8,
15-Oct-2020 16:00,16.1,
15-Oct-2020 17:00,18,
15-Oct-2020 18:00,19.2,
15-Oct-2020 19:00,22.7,
15-Oct-2020 20:00,20.8,
15-Oct-2020 21:00,21.1,
15-Oct-2020 22:00,22.9,
15-Oct-2020 23:00,18.2,
16-Oct-2020 00:00,20.6,
16-Oct-2020 01:00,25.7,
16-Oct-2020 02:00,31.5,
16-Oct-2020 03:00,28.6,
16-Oct-2020 04:00,25.5,
16-Oct-2020 05:00,24,
16-Oct-2020 06:00,19.1,
16-Oct-2020 07:00,21.2,
16-Oct-2020 08:00,21.4,
16-Oct-2020 09:00,23.5,
16-Oct-2020 10:00,28.9,
16-Oct-2020 11:00,22.2,
16-Oct-2020 12:00,14.2,
16-Oct-2020 13:00,11.9,
16-Oct-2020 14:00,10.7,
16-Oct-2020 15:00,8.5,
16-Oct-2020 16:00,11.3,
16-Oct-2020 17:00,11.3,
16-Oct-2020 18:00,13.2,
16-Oct-2020 19:00,12.5,
16-Oct-2020 20:00,12.5,
16-Oct-2020 21:00,11.4,
16-Oct-2020 22:00,14,
16-Oct-2020 23:00,13,
17-Oct-2020 00:00,10.6,
17-Oct-2020 01:00,10.2,
17-Oct-2020 02:00,11.1,
17-Oct-2020 03:00,12.4,
17-Oct-2020 04:00,11.6,
17-Oct-2020 05:00,10.8,
17-Oct-2020 06:00,12,
17-Oct-2020 07:00,14.8,
17-Oct-2020 08:00,14.5,
17-Oct-2020 09:00,17.1,
17-Oct-2020 10:00,16.7,
17-Oct-2020 11:00,17.7,
17-Oct-2020 12:00,19.4,
17-Oct-2020 13:00,24.1,
17-Oct-2020 14:00,22.8,
17-Oct-2020 15:00,19,
17-Oct-2020 16:00,19.6,
17-Oct-2020 17:00,23.1,
17-Oct-2020 18:00,21.3,
17-Oct-2020 19:00,19.1,
17-Oct-2020 20:00,18.6,
17-Oct-2020 21:00,20.4,
17-Oct-2020 22:00,21.6,
17-Oct-2020 23:00,23.3,
18-Oct-2020 00:00,31.9,
18-Oct-2020 01:00,24.7,
18-Oct-2020 02:00,22.4,
18-Oct-2020 03:00,28.5,
18-Oct-2020 04:00,33.5,
18-Oct-2020 05:00,36.9,
18-Oct-2020 06:00,34.6,
18-Oct-2020 07:00,33.2,
18-Oct-2020 08:00,43.6,
18-Oct-2020 09:00,50.7,
18-Oct-2020 10:00,63.9,
18-Oct-2020 11:00,72.6,
18-Oct-2020 12:00,85,
18-Oct-2020 13:00,56.9,
18-Oct-2020 14:00,38.6,
18-Oct-2020 15:00,45.8,
18-Oct-2020 16:00,43.3,
18-Oct-2020 17:00,53.9,
18-Oct-2020 18:00,45.9,
18-Oct-2020 19:00,49.4,
18-Oct-2020 20:00,42.1,
18-Oct-2020 21:00,39.7,
18-Oct-2020 22:00,40.8,
18-Oct-2020 23:00,38.2,
19-Oct-2020 00:00,49,
19-Oct-2020 01:00,52.6,
19-Oct-2020 02:00,49.7,
19-Oct-2020 03:00,55.3,
19-Oct-2020 04:00,61.1,
19-Oct-2020 05:00,64.7,
19-Oct-2020 06:00,61.5,
19-Oct-2020 07:00,60.9,
19-Oct-2020 08:00,62.4,
19-Oct-2020 09:00,65.5,
19-Oct-2020 10:00,69.5,
19-Oct-2020 11:00,70,
19-Oct-2020 12:00,79.4,
19-Oct-2020 13:00,70.9,
19-Oct-2020 14:00,61.2,
19-Oct-2020 15:00,41.4,
19-Oct-2020 16:00,45.2,
19-Oct-2020 17:00,43.3,
19-Oct-2020 18:00,43.3,
19-Oct-2020 19:00,50.2,
19-Oct-2020 20:00,66.1,
19-Oct-2020 21:00,53.3,
19-Oct-2020 22:00,47.5,
19-Oct-2020 23:00,57.5,
20-Oct-2020 00:00,64.8,
20-Oct-2020 01:00,85.6,
20-Oct-2020 02:00,109.9,
20-Oct-2020 03:00,118.3,
20-Oct-2020 04:00,103.5,
20-Oct-2020 05:00,93.4,
20-Oct-2020 06:00,90.4,
20-Oct-2020 07:00,86.8,
20-Oct-2020 08:00,68.8,
20-Oct-2020 09:00,50.5,
20-Oct-2020 10:00,44.3,
20-Oct-2020 11:00,30.8,
20-Oct-2020 12:00,23.2,
20-Oct-2020 13:00,23.4,
20-Oct-2020 14:00,31.3,
20-Oct-2020 15:00,27.8,
20-Oct-2020 16:00,29.1,
20-Oct-2020 17:00,26.3,
20-Oct-2020 18:00,25.3,
20-Oct-2020 19:00,27.1,
20-Oct-2020 20:00,26.7,
20-Oct-2020 21:00,25.9,
20-Oct-2020 22:00,25.6,
20-Oct-2020 23:00,25.7,
21-Oct-2020 00:00,27.6,
21-Oct-2020 01:00,28.5,
21-Oct-2020 02:00,30.5,
21-Oct-2020 03:00,25.9,
21-Oct-2020 04:00,28.2,
21-Oct-2020 05:00,31.4,
21-Oct-2020 06:00,34,
21-Oct-2020 07:00,37.5,
21-Oct-2020 08:00,38.9,
21-Oct-2020 09:00,42.7,
21-Oct-2020 10:00,49.7,
21-Oct-2020 11:00,40.1,
21-Oct-2020 12:00,32.9,
21-Oct-2020 13:00,24.7,
21-Oct-2020 14:00,33.6,
21-Oct-2020 15:00,26.8,
21-Oct-2020 16:00,31,
21-Oct-2020 17:00,22.9,
21-Oct-2020 18:00,23.4,
21-Oct-2020 19:00,23.9,
21-Oct-2020 20:00,23.3,
21-Oct-2020 21:00,21.4,
21-Oct-2020 22:00,22.9,
21-Oct-2020 23:00,29.9,
22-Oct-2020 00:00,29.1,
22-Oct-2020 01:00,26.8,
22-Oct-2020 02:00,30.6,
22-Oct-2020 03:00,32.3,
22-Oct-2020 04:00,32.3,
22-Oct-2020 05:00,43,
22-Oct-2020 06:00,40.9,
22-Oct-2020 07:00,57.5,
22-Oct-2020 08:00,49,
22-Oct-2020 09:00,47.7,
22-Oct-2020 10:00,,BL
22-Oct-2020 11:00,,BL
22-Oct-2020 12:00,,BL
22-Oct-2020 13:00,63.8,
22-Oct-2020 14:00,46.5,
22-Oct-2020 15:00,42.8,
22-Oct-2020 16:00,86.9,
22-Oct-2020 17:00,44.1,
22-Oct-2020 18:00,41.6,
22-Oct-2020 19:00,36.8,
22-Oct-2020 20:00,117.4,
22-Oct-2020 21:00,37.6,
22-Oct-2020 22:00,32.6,
22-Oct-2020 23:00,32.9,
23-Oct-2020 00:00,42.4,
23-Oct-2020 01:00,55.5,
23-Oct-2020 02:00,58.3,
23-Oct-2020 03:00,58.1,
23-Oct-2020 04:00,59.7,
23-Oct-2020 05:00,54.9,
23-Oct-2020 06:00,53,
23-Oct-2020 07:00,56.7,
23-Oct-2020 08:00,60.3,
23-Oct-2020 09:00,57.7,
23-Oct-2020 10:00,52.8,
23-Oct-2020 11:00,45.6,
23-Oct-2020 12:00,44.8,
23-Oct-2020 13:00,43.4,
23-Oct-2020 14:00,48.2,
23-Oct-2020 15:00,43.9,
23-Oct-2020 16:00,60.9,
23-Oct-2020 17:00,43.3,
23-Oct-2020 18:00,37.8,
23-Oct-2020 19:00,34.6,
23-Oct-2020 20:00,36.8,
23-Oct-2020 21:00,37,
23-Oct-2020 22:00,35.5,
23-Oct-2020 23:00,33.7,
24-Oct-2020 00:00,34.1,
24-Oct-2020 01:00,32.8,
24-Oct-2020 02:00,48.1,
24-Oct-2020 03:00,33.3,
24-Oct-2020 04:00,34.8,
24-Oct-2020 05:00,34.7,
24-Oct-2020 06:00,33.5,
24-Oct-2020 07:00,36.9,
24-Oct-2020 08:00,36,
24-Oct-2020 09:00,38,
24-Oct-2020 10:00,38.9,
24-Oct-2020 11:00,36.5,
24-Oct-2020 12:00,42.9,
24-Oct-2020 13:00,38.7,
24-Oct-2020 14:00,39.3,
24-Oct-2020 15:00,43.8,
24-Oct-2020 16:00,53.4,
24-Oct-2020 17:00,42.1,
24-Oct-2020 18:00,40,
24-Oct-2020 19:00,49,
24-Oct-2020 20:00,46.8,
24-Oct-2020 21:00,42.4,
24-Oct-2020 22:00,46.4,
24-Oct-2020 23:00,38.2,
25-Oct-2020 00:00,35.4,
25-Oct-2020 01:00,34.6,
25-Oct-2020 02:00,28.2,
25-Oct-2020 03:00,29.7,
25-Oct-2020 04:00,40.5,
25-Oct-2020 05:00,29.4,
25-Oct-2020 06:00,28.1,
25-Oct-2020 07:00,30.9,
25-Oct-2020 08:00,43.1,
25-Oct-2020 09:00,43.2,
25-Oct-2020 10:00,41,
25-Oct-2020 11:00,37.4,
25-Oct-2020 12:00,37,
25-Oct-2020 13:00,38.4,
25-Oct-2020 14:00,44,
25-Oct-2020 15:00,47.1,
25-Oct-2020 16:00,113.3,
25-Oct-2020 17:00,325.6,
25-Oct-2020 18:00,470.3,
25-Oct-2020 19:00,391,
25-Oct-2020 20:00,590.5,
25-Oct-2020 21:00,738,
25-Oct-2020 22:00,324.7,
25-Oct-2020 23:00,154.9,
26-Oct-2020 00:00,205.2,
26-Oct-2020 01:00,173,
26-Oct-2020 02:00,186.2,
26-Oct-2020 03:00,177.7,
26-Oct-2020 04:00,131.3,
26-Oct-2020 05:00,104.1,
26-Oct-2020 06:00,116.5,
26-Oct-2020 07:00,64.9,
26-Oct-2020 08:00,47.3,
26-Oct-2020 09:00,86.3,
26-Oct-2020 10:00,127.5,
26-Oct-2020 11:00,67.9,
26-Oct-2020 12:00,71.2,
26-Oct-2020 13:00,23.4,
26-Oct-2020 14:00,17.9,
26-Oct-2020 15:00,15.8,
26-Oct-2020 16:00,12,
26-Oct-2020 17:00,10.8,
26-Oct-2020 18:00,12.5,
26-Oct-2020 19:00,11.2,
26-Oct-2020 20:00,17.5,
26-Oct-2020 21:00,10,
26-Oct-2020 22:00,10.2,
26-Oct-2020 23:00,11,
27-Oct-2020 00:00,11.3,
27-Oct-2020 01:00,10,
27-Oct-2020 02:00,11.6,
27-Oct-2020 03:00,15.1,
27-Oct-2020 04:00,19,
27-Oct-2020 05:00,23.6,
27-Oct-2020 06:00,25.5,
27-Oct-2020 07:00,39.4,
27-Oct-2020 08:00,40.6,
27-Oct-2020 09:00,24.9,
27-Oct-2020 10:00,22.6,
27-Oct-2020 11:00,21.7,
27-Oct-2020 12:00,20.1,
27-Oct-2020 13:00,33.1,
27-Oct-2020 14:00,23.6,
27-Oct-2020 15:00,23.6,
27-Oct-2020 16:00,14.9,
27-Oct-2020 17:00,10.4,
27-Oct-2020 18:00,16.3,
27-Oct-2020 19:00,13.2,
27-Oct-2020 20:00,15,
27-Oct-2020 21:00,12.4,
27-Oct-2020 22:00,12.7,
27-Oct-2020 23:00,17.1,
28-Oct-2020 00:00,17.3,
28-Oct-2020 01:00,13.2,
28-Oct-2020 02:00,6.1,
28-Oct-2020 03:00,6.1,
28-Oct-2020 04:00,8,
28-Oct-2020 05:00,7.3,
28-Oct-2020 06:00,4.3,
28-Oct-2020 07:00,11.5,
28-Oct-2020 08:00,7.4,
28-Oct-2020 09:00,6.7,
28-Oct-2020 10:00,10.1,
28-Oct-2020 11:00,7.9,
28-Oct-2020 12:00,6.4,
28-Oct-2020 13:00,4.8,
28-Oct-2020 14:00,21.2,
28-Oct-2020 15:00,46.6,
28-Oct-2020 16:00,24.7,
28-Oct-2020 17:00,39.1,
28-Oct-2020 18:00,7.6,
28-Oct-2020 19:00,6.5,
28-Oct-2020 20:00,10.2,
28-Oct-2020 21:00,11.9,
28-Oct-2020 22:00,8.6,
28-Oct-2020 23:00,14.5,
29-Oct-2020 00:00,8.2,
29-Oct-2020 01:00,4.1,
29-Oct-2020 02:00,4.7,
29-Oct-2020 03:00,8.1,
29-Oct-2020 04:00,8.9,
29-Oct-2020 05:00,6.1,
29-Oct-2020 06:00,5.8,
29-Oct-2020 07:00,8.7,
29-Oct-2020 08:00,8.7,
29-Oct-2020 09:00,5.3,
29-Oct-2020 10:00,11.2,
29-Oct-2020 11:00,6.2,
29-Oct-2020 12:00,4.3,
29-Oct-2020 13:00,4.3,
29-Oct-2020 14:00,11.1,
29-Oct-2020 15:00,16.1,
29-Oct-2020 16:00,27.6,
29-Oct-2020 17:00,8.2,
29-Oct-2020 18:00,8.3,
29-Oct-2020 19:00,7.8,
29-Oct-2020 20:00,8.3,
29-Oct-2020 21:00,9.2,
29-Oct-2020 22:00,6.5,
29-Oct-2020 23:00,48.2,
30-Oct-2020 00:00,16,
30-Oct-2020 01:00,5.3,
30-Oct-2020 02:00,8.2,
30-Oct-2020 03:00,6.7,
30-Oct-2020 04:00,7.7,
30-Oct-2020 05:00,6,
30-Oct-2020 06:00,8.6,
30-Oct-2020 07:00,9.1,
30-Oct-2020 08:00,13.3,
30-Oct-2020 09:00,6.4,
30-Oct-2020 10:00,7.4,
30-Oct-2020 11:00,6.1,
30-Oct-2020 12:00,7.3,
30-Oct-2020 13:00,7.3,
30-Oct-2020 14:00,12.5,
30-Oct-2020 15:00,9.7,
30-Oct-2020 16:00,3.5,
30-Oct-2020 17:00,4.8,
30-Oct-2020 18:00,7.7,
30-Oct-2020 19:00,14.3,
30-Oct-2020 20:00,8,
30-Oct-2020 21:00,8.2,
30-Oct-2020 22:00,6,
30-Oct-2020 23:00,8.6,
31-Oct-2020 00:00,9,
31-Oct-2020 01:00,9.1,
31-Oct-2020 02:00,5.7,
31-Oct-2020 03:00,6.9,
31-Oct-2020 04:00,12.1,
31-Oct-2020 05:00,8.6,
31-Oct-2020 06:00,7,
31-Oct-2020 07:00,9.4,
31-Oct-2020 08:00,12.8,
31-Oct-2020 09:00,10.9,
31-Oct-2020 10:00,10.2,
31-Oct-2020 11:00,10.9,
31-Oct-2020 12:00,9.7,
31-Oct-2020 13:00,7.8,
31-Oct-2020 14:00,6.8,
31-Oct-2020 15:00,9.3,
31-Oct-2020 16:00,24.3,
31-Oct-2020 17:00,12.6,
31-Oct-2020 18:00,6.9,
31-Oct-2020 19:00,7.5,
31-Oct-2020 20:00,6.8,
31-Oct-2020 21:00,8.4,
31-Oct-2020 22:00,11.1,
31-Oct-2020 23:00,8.9,
